STARLINK AW (44279 NORAD) Tracking and Keplerian Element Data

This shows tracking and keplerian element data for the satellite.

Feedback or suggestion? Click here.




ElementValue
Catalog44279
NameSTARLINK AW
Epoch Orbit461
Epoch Day173.88743654
Epoch Year2019
RAAN37.4265
Inclination53.0005
Eccentricity0.0002152
Argument of Perigee103.3122
Mean Anonmoly256.8107
Mean Motion15.09537941
Decay Rate-0.00643892
L11 44279U 19029AW 19173.88743654 -.00643892 00000-0 -42305-1 0 9992
L22 44279 53.0005 37.4265 0002152 103.3122 256.8107 15.09537941 4614

Live tracking and technical data element details for STARLINK AW (NORAD 44279). STARLINK AW can be tracked NOW for your location showing map with azimuth and elevation plus other details from your city location.

Track the satellite on the map from your city or location and see movement details for azimuth, elevation, latitude, longitude, range, height, and movement on the map or in text.







IsCatalogInMostPopularTable: catalog: 44279, numindb: 31
Update: records affected: 1



GetName: 44279 STARLINK AW

Hit Count: updated at: Sun, 21 Jul 2019 21:27:40 GMT